{"data":{"norad_id":63856,"epoch":"2026-05-24T22:39:47.685024Z","epoch_age_seconds":76951,"freshness":"FRESH","line1":"1 63856U 25093W   26144.94430191  .00018095  00000+0  66510-3 0  9998","line2":"2 63856  43.0056   7.2950 0001686 232.7795 127.2903 15.27598747 59415","mean_motion":15.27598747,"eccentricity":0.0001686,"inclination_deg":43.0056,"raan_deg":7.295,"arg_perigee_deg":232.7795,"mean_anomaly_deg":127.2903,"bstar":0.0006651,"rev_number":5941,"period_min":94.265591853094,"perigee_km":481.83617484006,"apogee_km":484.14974786303,"semimajor_km":6861.1299613515,"source":"CELESTRAK","updated_at":"2026-05-25T13:38:20.150320Z"}}